Sheringham Point, British Columbia

8:54 PM PST on February 22, 2018 (GMT -0800)
Sheringham Point

Weather History for CWSP - September, 2013

Change the Weather History Date:

Monday, September 30, 2013

  Actual Average Record
Temperature  
Mean Temperature 52 °F -  
Max Temperature 54 °F - - ()
Min Temperature 49 °F - - ()
Degree Days  
Heating Degree Days 14    
Growing Degree Days 2 (Base 50)    
Moisture  
Dew Point 47 °F    
Average Humidity 82    
Maximum Humidity 92    
Minimum Humidity 72    
Precipitation  
Precipitation 0.28 in - - ()
Sea Level Pressure  
Sea Level Pressure 29.60 in    
Wind  
Wind Speed 15 mph ()    
Max Wind Speed 26 mph    
Max Gust Speed 34 mph    
T = Trace of Precipitation, MM = Missing Value Source: Averaged Metar Reports

Daily Weather History Graph

Daily Weather History Graph

Search for Another Location

Airport or City:

Trip Planner

Search our weather history database for the weather conditions in past years. The results will help you decide how hot, cold, wet, or windy it might be!

Date:

Astronomy

Sep. 30, 2013 Rise Set
Actual Time 7:14 AM PDT 6:56 PM PDT
Civil Twilight 6:42 AM PDT 7:27 PM PDT
Nautical Twilight 6:06 AM PDT 8:03 PM PDT
Astronomical Twilight 5:29 AM PDT 8:40 PM PDT
Moon 2:39 AM PDT (9/30) 4:44 PM PDT (9/30)
Length of Visible Light 12h 44m
Length of Day
11h 41m
Waning Crescent, 18% of the Moon is Illuminated
Sep 30
Waning Crescent
Oct 4
New
Oct 11
First Quarter
Oct 18
Full
Oct 26
Last Quarter

Hourly Weather History & Observations

Time (PDT) Temp. Dew Point Humidity Pressure Visibility Wind Dir Wind Speed Gust Speed Precip Events Conditions
12:00 AM 53.6 °F 44.8 °F 72% 29.28 in - West 20.7 mph - N/A   Unknown
1:00 AM 53.2 °F 45.3 °F 74% 29.31 in - WSW 21.9 mph 27.6 mph N/A   Unknown
2:00 AM 52.0 °F 45.1 °F 77% 29.35 in - WSW 24.2 mph - N/A   Unknown
3:00 AM 52.2 °F 45.7 °F 79% 29.37 in - WSW 18.4 mph - N/A   Unknown
4:00 AM 52.3 °F 45.5 °F 78% 29.39 in - West 19.6 mph 25.3 mph 0.02 in   Unknown
5:00 AM 51 °F 46 °F 78% 29.42 in - West 26.5 mph - -  
5:00 AM 50.9 °F 46.2 °F 84% 29.42 in - West 26.5 mph - 0.04 in   Unknown
6:00 AM 51.6 °F 47.1 °F 85% 29.44 in - West 13.8 mph - N/A   Unknown
7:00 AM 50.4 °F 47.5 °F 90% 29.46 in - WNW 9.2 mph - 0.02 in   Unknown
8:00 AM 51.1 °F 48.4 °F 90% 29.51 in - WNW 13.8 mph - 0.05 in   Unknown
9:00 AM 50.0 °F 47.7 °F 92% 29.55 in - West 3.5 mph - 0.06 in   Unknown
10:00 AM 51.3 °F 47.7 °F 87% 29.58 in - WNW 10.4 mph - 0.05 in   Unknown
11:00 AM 53 °F 49 °F 82% 29.60 in - West 4.6 mph - -  
11:00 AM 52.9 °F 49.1 °F 87% 29.60 in - West 4.6 mph - N/A   Unknown
12:00 PM 51.8 °F 47.7 °F 86% 29.63 in - West 24.2 mph 32.2 mph 0.08 in   Unknown
1:00 PM 52.5 °F 47.8 °F 84% 29.66 in - West 19.6 mph 25.3 mph 0.07 in   Unknown
2:00 PM 51.6 °F 47.8 °F 87% 29.68 in - West 3.5 mph - 0.02 in   Unknown
3:00 PM 51.3 °F 46.6 °F 84% 29.70 in - WNW 25.3 mph 34.5 mph 0.04 in   Unknown
4:00 PM 51.6 °F 46.9 °F 84% 29.72 in - WNW 17.3 mph - 0.03 in   Unknown
5:00 PM 50 °F 46 °F 80% 29.75 in - WNW 10.4 mph - -  
5:00 PM 49.6 °F 45.7 °F 86% 29.75 in - WNW 10.4 mph - 0.02 in   Unknown
6:00 PM 52.7 °F 48.0 °F 84% 29.76 in - West 6.9 mph - N/A   Unknown
7:00 PM 52.5 °F 45.7 °F 78% 29.76 in - WSW 18.4 mph - N/A   Unknown
8:00 PM 51.1 °F 45.0 °F 80% 29.79 in - West 13.8 mph - N/A   Unknown
9:00 PM 51.6 °F 44.8 °F 77% 29.82 in - WSW 16.1 mph 26.5 mph N/A   Unknown
10:00 PM 51.4 °F 45.0 °F 79% 29.83 in - WSW 13.8 mph - N/A   Unknown
11:00 PM 51 °F 47 °F 80% 29.84 in - West 10.4 mph - -  
11:00 PM 51.1 °F 46.6 °F 85% 29.84 in - West 10.4 mph - N/A   Unknown